Погода Софийский Прииск

Погода Софийский Прииск : погода сейчас, прогноз погоды и архив. Всё, что Вы хотите узнать о погоде Софийский Прииск!

Поиск расширенной информации на нашем сайте:

Другие новости

Новости СМИ2

Главная страница сайта

Новости сайта

03.07.2017

Напоминаем, что на нашем специализированном сайте Метеоцентр.Азия вы можете получить высокодетализированные автоматические прогнозы погоды по пунктам России, СНГ и мира в авиационном формате (включающие направление и скорость ветра, видимость, явления погоды, количество и форму облачности, нижнюю и верхнюю границу облачности).


Погода Софийский Прииск - сегодня

Время (UTC), дата Ветер
(°,м/с) 
Видим.   Явления Облачность Т
(°С)
Тd
(°С)
f(%) Тe
(°С)
Pmin
(гПа)
dP
(гПа)
Po
(мм)
O2
(г/м3)
Тmin Tmax R s Состояние
почвы
18 17.02.18 070 (В) 20000 м    ясно 
-34.8 -38.5 69 -36  1026.8  0.9  678  315           
00 18.02.18 070 (В) 20000 м    4/0 верхняя 
[Cs]
-30.3 -34.2 69 -31  1025.2  0.6  678  309  -36.9         
03 18.02.18 240 (ЮЗ) 20000 м    3/0 верхняя 
[Ci fib]
-20.4 -28.8 47 -21  1018.8  -1.2  677  297           
06 18.02.18 230 (ЮЗ) 20000 м    1/0 верхняя 
[Ci fib]
-16.8 -27.8 38 -17  1015.8  -1.2  677  292           
12 18.02.18 060 (СВ) 20000 м    3/0 верхняя 
[Ci fib]
-31 -34 75 -32  1023.6  0.4  677  309           
15 18.02.18 070 (В) 20000 м    3/0 верхняя 
[Ci fib]
-30.7 -34.2 71 -34  1022  -1.1  676  309           
18 18.02.18 070 (В) 20000 м    8/0 верхняя 
[Ci fib]
-31.6 -35 72 -32  1022  -0.5  676  310           
21 18.02.18 090 (В) 20000 м  слаб. снег  9/0 средняя, верхняя 
[As trans|Ci fib]
-32.9 -36.8 68 -34  1021.4  -1.1    -32.9    0.0  32  равномерный
сухой снег
100% 
03 19.02.18 240 (ЮЗ) 20000 м    10/0 верхняя 
[Cs]
-20 -25.6 61 -23  1012.8  -1.3             
06 19.02.18 220 (ЮЗ) 20000 м    8/0 
-18.3 -24.6 58 -21  1011  -0.9             
12 19.02.18 100 (В) 20000 м    6/0 верхняя 
[Ci sp]
-28.3 -31.1 77 -29  1017.1  0.2             
15 19.02.18 070 (В) 20000 м  слаб. снег  8/0 верхняя 
[Cs]
-31.9 -35.3 72 -33  1018.1  -0.8             
18 19.02.18 070 (В) 20000 м  {снег}  6/0 верхняя 
[Ci sp]
-34.8 -38.6 68 -36  1019.2  -0.4             
21 19.02.18 070 (В) 20000 м  слаб. снег  10/0 верхняя 
[Cs]
-35.2 -39.1 68 -36  1018.7  -0.6    -35.9    0.2  32  равномерный
сухой снег
100% 
03 20.02.18 260 (З) 20000 м    8/0 средняя, верхняя 
[As trans|Ci fib]
-21.9 -28 58 -26  1011.4  -0.6             
06 20.02.18 280 (З) 20000 м    9/3 1000 м средняя, верхняя 
[Cu hum|As trans|Ci fib]
-19.2 -29.1 41 -23  1010.1             
12 20.02.18 170 (Ю) 20000 м    3/0 верхняя 
[Ci fib]
-29.8 -32.7 76 -31  1017.9             
15 20.02.18 140 (ЮВ) 20000 м    ясно 
-32.7 -36.1 72 -34  1019.1  -0.2             
18 20.02.18 060 (СВ) 20000 м    ясно 
-36.4 -40.4 66 -37  1020.9  -0.3             
00 21.02.18 050 (СВ) 20000 м    ясно 
-32.5 -36.1 70 -33  1019  0.3    -38.9         
03 21.02.18 250 (З) 20000 м    1/1 1000 м 
[Cu hum]
-22.9 -29.5 55 -26  1013.4  -0.5             
06 21.02.18 240 (ЮЗ) 20000 м    10/0 верхняя 
[Sc diur, vesp|Ci sp]
-19.7 -29.1 43 -24  1011.4  -0.5             
12 21.02.18 080 (В) 20000 м  {снег}  ясно 
-32.3 -35.7 72 -33  1020.3             
15 21.02.18 070 (В) 20000 м    ясно 
-35.4 -39.2 68 -36  1022.1  0.2             
18 21.02.18 050 (СВ) 20000 м    ясно 
-36.9 -40.7 68 -41  1022.6  -0.4             
Время (UTC), дата Ветер
(°,м/с) 
Видим.   Явления Облачность Т
(°С)
Тd
(°С)
f(%) Тe
(°С)
Pmin
(гПа)
dP
(гПа)
Po
(мм)
O2
(г/м3)
Тmin Tmax R s Состояние
почвы

Для получения пояснительной информации подведите курсор к названию столбца.

ПОГОДА Софийский Прииск - архив

Всё, что Вы хотите узнать о погоде Софийский Прииск - удобно и подробно!

Выберите нужную дату (начиная с 1 января 2015* года) и нажмите кнопку "Найти".
Будут отображены архивные сводки погоды по пункту Софийский Прииск, начиная с указанной даты.


Отображать данные в формате CSV (для использования в таблицах Excel)


Внимание! Наш архив погоды предназначен исключительно для личного некоммерческого использования в познавательных целях. Если Вам необходимы официальные справки о состоянии погоды (для производственных, юридических, коммерческих и т.п. целей), обращайтесь в органы Росгидромета.

*Примечание: данная дата относится к архиву по метеостанциям СССР (Россия, СНГ, Балтия).
Архив по метеостанциям Зарубежной Европы и Азии (кроме Китая) хранится 10 дней, по другим регионам земного шара (Китай, Африка, Америка, Австралия, Океания) - 1 день.

Софийский Прииск - район местоположения метеостанции


Название, широта, долгота, высота метеостанции:
Софийский Прииск 52.3°ш. 134°д. 902 м над ур. моря [Российская Федерация]

Дополнительная информация

В oтличие oт бoльшинства пoгoдных сайтoв мы публикуем пoдрoбную метеoинфoрмацию в детальнoм прoфессиoнальнoм фoрмате.

Характеристики температуры и влажнoсти вoздуха измеряются на высoте 2 м в тени вдали oт зданий и деревьев.
Скoрoсть ветра измеряется на высoте 10 м (на урoвне рoста челoвека скoрoсть ветра ниже в 1.5-2 раза). Если метеoстанция нахoдится в гoрoде или в лесу, тo скoрoсть ветра занижена на 2-4 м/с пo сравнению с oткрытым местoм. Скoрoсть ветра над акватoриями крупных рек и oзёр, а также на вершинах хoлмoв на 2-5 м/с выше, чем в oбычных услoвиях.
Атмoсфернoе давление в разных тoчках местнoсти мoжет значительнo oтличаться oт давления на метеoстанции, в зависимoсти oт услoвий рельефа (при пoдъёме на 10 м давление пoнижается примернo на 1 мм рт.ст.).